x

Olcott Harbor, Ny (olcn6) Weather Station

1:50pm - Fri 19th Dec 2014 All times are CST. -6 hours from GMT.

  • Wind
    17mph, 20mph gusts
  • Air Temp 31°f
  • Sea Pressure 1023mb
  • Olcott Harbor, Ny
  • Olcott Harbor, Ny

More Historic Weather Station data

Upgrade to MSW Pro to gain access to the past 30 days of data for over 8000 Wavebouys and Weather Stations around the globe.

Join Pro

Comparision Forecast

View Surf forecast
   
Fri 12/19 1:50pm 17 20 mph 1023mb 31f
1:40pm 17 21 mph 1023mb 31f
1:30pm 16 21 mph 1023mb 30f
1:20pm 17 21 mph 1023mb 30f
1:10pm 16 20 mph 1023mb 30f
1:00pm 17 23 mph 1023mb 30f
12:50pm 15 18 mph 1023mb 29f
12:40pm 16 20 mph 1023mb 29f
12:30pm 16 20 mph 1022.7mb 29f
12:20pm 16 18 mph 1022.7mb 29f
12:10pm 15 18 mph 1022.7mb 29f
12:00pm 14 18 mph 1022.7mb 29f
11:50am 17 20 mph 1022.7mb 28f
11:40am 15 18 mph 1022.7mb 28f
11:30am 16 20 mph 1022.7mb 28f
11:20am 15 20 mph 1022.7mb 28f
11:10am 15 17 mph 1023mb 28f
11:00am 16 18 mph 1023mb 28f
10:50am 15 18 mph 1023mb 28f
10:40am 14 20 mph 1023.4mb 27f
10:30am 14 18 mph 1023.4mb 27f
10:20am 14 17 mph 1023.7mb 27f
10:10am 15 17 mph 1023.7mb 27f
10:00am 13 16 mph 1023.7mb 27f
9:50am 13 15 mph 1024mb 27f
9:40am 11 17 mph 1023.7mb 27f
9:30am 13 17 mph 1024mb 26f
9:20am 14 16 mph 1024mb 26f
9:10am 10 14 mph 1024mb 26f
9:00am 11 16 mph 1024mb 26f
8:50am 13 16 mph 1024mb 26f
8:40am 14 16 mph 1023.7mb 26f
8:30am 8 17 mph 1023.7mb 26f
8:20am 13 15 mph 1023.7mb 26f
8:10am 11 16 mph 1023.7mb 26f
8:00am 11 16 mph 1023.7mb 26f
7:50am 11 15 mph 1023.4mb 26f
7:40am 13 17 mph 1023.4mb 26f
7:30am 14 18 mph 1023mb 26f
7:20am 15 17 mph 1023mb 26f
7:10am 14 18 mph 1023mb 26f
7:00am 14 18 mph 1022.7mb 26f
6:50am 14 18 mph 1022.7mb 26f
6:40am 15 20 mph 1022.7mb 26f
6:30am 16 21 mph 1022.7mb 26f
6:20am 16 21 mph 1022.4mb 26f
6:10am 13 17 mph 1022.4mb 26f
6:00am 15 21 mph 1022.4mb 26f
5:50am 14 18 mph 1022.4mb 25f
5:40am 18 22 mph 1022.4mb 25f
5:30am 16 20 mph 1022mb 25f
5:20am 15 20 mph 1022mb 25f
5:10am 17 20 mph 1022mb 25f
4:00am 13 22 mph 1021.7mb 25f
3:50am 16 21 mph 1021.3mb 25f
3:40am 15 20 mph 1021.3mb 25f
3:30am 18 23 mph 1021.3mb 26f
3:20am 15 20 mph 1021.3mb 26f
3:10am 10 18 mph 1021.3mb 26f
3:00am 14 18 mph 1021mb 26f
2:50am 13 18 mph 1021.3mb 26f
2:40am 16 18 mph 1021.3mb 26f
2:30am 14 17 mph 1021.7mb 26f
2:20am 15 20 mph 1021.3mb 26f
2:10am 14 16 mph 1021.7mb 26f
2:00am 14 18 mph 1021.3mb 26f
1:50am 9 14 mph 1021.7mb 26f
1:40am 8 22 mph 1021.3mb 26f
1:30am 16 20 mph 1021.3mb 26f
1:20am 11 20 mph 1021.3mb 26f
1:10am 16 18 mph 1021mb 26f
1:00am 13 21 mph 1021.3mb 27f
12:50am 17 22 mph 1021mb 27f
12:40am 18 22 mph 1020.7mb 27f
12:30am 18 24 mph 1020.7mb 27f
12:20am 18 22 mph 1020.3mb 27f
12:10am 18 23 mph 1020.7mb 27f
12:00am 16 22 mph 1020.3mb 27f
Thu 12/18 11:50pm 17 22 mph 1020.3mb 27f
11:40pm 18 22 mph 1020.3mb 27f
11:30pm 16 22 mph 1020.3mb 27f
11:20pm 18 23 mph 1020.3mb 27f
11:10pm 17 23 mph 1020.3mb 28f
11:00pm 18 22 mph 1020mb 28f
10:50pm 17 24 mph 1020.3mb 28f
10:40pm 17 23 mph 1020.3mb 28f
10:30pm 18 23 mph 1020.3mb 28f
10:20pm 21 25 mph 1020.3mb 28f
10:10pm 18 24 mph 1020.3mb 29f
10:00pm 18 23 mph 1020mb 30f
9:50pm 20 22 mph 1020mb 30f
9:40pm 15 22 mph 1020mb 30f
9:30pm 16 22 mph 1020mb 30f
9:20pm 14 20 mph 1020mb 30f
9:10pm 18 22 mph 1020mb 30f
9:00pm 18 24 mph 1020mb 30f
8:50pm 17 21 mph 1019.6mb 30f
8:40pm 18 23 mph 1020mb 30f
8:30pm 18 23 mph 1019.6mb 31f
8:20pm 20 23 mph 1019.6mb 30f
8:10pm 18 23 mph 1020mb 31f
7:00pm 17 23 mph 1020.3mb 31f
6:50pm 20 23 mph 1020.3mb 31f
6:40pm 20 24 mph 1020.3mb 31f
6:30pm 20 23 mph 1020.3mb 31f
6:20pm 20 23 mph 1020.3mb 31f
6:10pm 20 22 mph 1020.3mb 32f
6:00pm 18 22 mph 1020.3mb 32f
5:50pm 18 22 mph 1020.3mb 32f
5:40pm 17 22 mph 1020.3mb 32f
5:30pm 16 20 mph 1020.3mb 32f
5:20pm 17 20 mph 1020.3mb 32f
5:10pm 16 20 mph 1020.3mb 32f
5:00pm 17 21 mph 1020.3mb 33f
4:50pm 16 20 mph 1020.3mb 32f
4:40pm 16 20 mph 1020mb 33f
4:30pm 17 21 mph 1020mb 33f
4:20pm 18 21 mph 1020mb 33f
4:10pm 16 22 mph 1020mb 33f
4:00pm 20 24 mph 1019.3mb 33f
3:50pm 18 24 mph 1019.3mb 33f
3:40pm 18 24 mph 1019.3mb 33f
3:30pm 20 24 mph 1019.3mb 33f
3:20pm 20 24 mph 1019.3mb 34f
3:10pm 21 24 mph 1019mb 34f
3:00pm 18 24 mph 1019mb 34f
2:50pm 18 23 mph 1019mb 34f
2:40pm 21 25 mph 1019mb 34f
2:30pm 17 23 mph 1019mb 34f
2:20pm 18 23 mph 1019mb 34f
2:10pm 20 24 mph 1018.6mb 34f
2:00pm 17 23 mph 1018.6mb 34f
1:50pm 21 24 mph 1018.6mb 33f
1:40pm 18 22 mph 1019mb 33f
1:30pm 20 23 mph 1018.6mb 33f
1:20pm 20 23 mph 1018.6mb 33f
1:10pm 18 22 mph 1018.6mb 33f
1:00pm 20 23 mph 1018.6mb 33f
12:50pm 17 23 mph 1018.6mb 33f
12:40pm 21 26 mph 1018.6mb 33f
12:30pm 21 24 mph 1018.6mb 33f
12:20pm 18 24 mph 1019mb 33f
12:10pm 20 24 mph 1019mb 33f
12:00pm 17 22 mph 1019mb 33f
11:50am 18 22 mph 1019.3mb 33f
11:40am 18 22 mph 1019.3mb 33f
11:30am 18 22 mph 1019mb 33f
11:20am 17 20 mph 1019.3mb 33f
11:10am 16 20 mph 1019.6mb 33f
11:00am 17 20 mph 1019.6mb 33f
10:50am 16 20 mph 1019.6mb 33f
10:40am 16 18 mph 1019.6mb 33f
10:30am 17 20 mph 1020mb 33f
10:20am 16 21 mph 1020mb 33f
10:10am 15 20 mph 1020mb 33f
10:00am 17 21 mph 1020mb 33f
9:50am 16 20 mph 1020mb 33f
9:40am 16 18 mph 1020.3mb 33f
9:30am 16 21 mph 1020mb 33f
9:20am 17 21 mph 1020.3mb 33f
9:10am 16 22 mph 1020.7mb 33f
9:00am 17 21 mph 1020.3mb 33f
8:50am 18 21 mph 1020.3mb 33f
8:40am 17 22 mph 1020.3mb 33f
8:30am 17 22 mph 1020mb 33f
8:20am 18 24 mph 1020mb 33f
8:10am 21 23 mph 1019.6mb 34f
8:00am 21 25 mph 1020mb 33f
7:50am 22 26 mph 1019.6mb 34f
7:40am 22 28 mph 1020mb 34f
7:30am 24 29 mph 1019.6mb 34f
7:20am 25 29 mph 1019.6mb 34f
7:10am 25 30 mph 1019.6mb 34f
4:00am 16 23 mph 1018.3mb 32f
3:50am 14 22 mph 1018.3mb 32f
3:40am 18 23 mph 1017.9mb 33f
3:30am 18 24 mph 1018.3mb 33f
3:20am 16 22 mph 1017.6mb 33f
3:10am 17 24 mph 1017.6mb 32f
3:00am 16 24 mph 1017.9mb 32f
2:50am 16 28 mph 1017.9mb 33f
2:40am 18 26 mph 1017.6mb 33f
2:30am 17 28 mph 1017.6mb 33f
2:20am 20 26 mph 1017.9mb 33f
2:10am 22 29 mph 1017.6mb 33f
1:00am 20 29 mph 1016.6mb 33f
12:50am 21 29 mph 1016.6mb 33f
12:40am 21 26 mph 1016.6mb 33f
12:30am 20 26 mph 1016.3mb 33f
12:20am 21 26 mph 1016.6mb 32f
12:10am 18 28 mph 1016.6mb 32f
12:00am 17 25 mph 1016.3mb 32f
Wed 12/17 11:50pm 17 25 mph 1016.3mb 32f
11:40pm 18 30 mph 1016.3mb 33f
11:30pm 16 28 mph 1015.9mb 32f
11:20pm 18 25 mph 1015.9mb 32f
11:10pm 16 24 mph 1016.3mb 32f
11:00pm 17 24 mph 1015.9mb 32f
10:50pm 20 31 mph 1015.9mb 32f
10:40pm 16 25 mph 1016.3mb 32f
10:30pm 18 25 mph 1015.9mb 32f
10:20pm 18 25 mph 1015.9mb 32f
10:10pm 17 29 mph 1015.9mb 32f
10:00pm 20 28 mph 1015.9mb 32f
9:50pm 18 28 mph 1015.9mb 32f
9:40pm 16 30 mph 1016.3mb 32f
9:30pm 18 26 mph 1015.9mb 32f
9:20pm 18 28 mph 1015.9mb 32f
9:10pm 18 26 mph 1015.9mb 32f
9:00pm 20 28 mph 1015.9mb 32f
8:50pm 18 28 mph 1015.9mb 32f
8:40pm 15 23 mph 1015.9mb 32f
8:30pm 20 25 mph 1015.9mb 32f
8:20pm 17 24 mph 1015.9mb 33f
8:10pm 16 25 mph 1015.9mb 33f
8:00pm 14 22 mph 1015.9mb 33f
7:50pm 16 24 mph 1015.9mb 33f
7:40pm 18 25 mph 1015.6mb 33f
7:30pm 17 26 mph 1015.9mb 33f
7:20pm 22 33 mph 1015.6mb 33f
7:10pm 21 28 mph 1015.6mb 33f
7:00pm 20 26 mph 1015.6mb 33f
6:50pm 18 26 mph 1015.2mb 33f
6:40pm 21 28 mph 1015.2mb 33f
6:30pm 17 23 mph 1015.2mb 34f
6:20pm 17 25 mph 1015.2mb 34f
6:10pm 18 25 mph 1015.2mb 34f
6:00pm 18 28 mph 1015.2mb 35f
5:50pm 20 26 mph 1014.9mb 35f
5:40pm 20 25 mph 1014.9mb 35f
5:30pm 15 24 mph 1014.9mb 35f
5:20pm 18 24 mph 1014.9mb 35f
5:10pm 17 23 mph 1014.6mb 35f
5:00pm 16 25 mph 1014.9mb 35f
4:50pm 18 25 mph 1014.2mb 35f
4:40pm 20 26 mph 1014.2mb 35f
4:30pm 20 26 mph 1014.6mb 35f
4:20pm 17 25 mph 1014.2mb 35f
4:10pm 20 25 mph 1014.2mb 35f
4:00pm 18 26 mph 1014.2mb 35f
3:50pm 17 25 mph 1014.2mb 35f
3:40pm 17 23 mph 1013.9mb 35f
3:30pm 17 23 mph 1013.9mb 35f
3:20pm 17 26 mph 1013.5mb 35f
3:10pm 17 24 mph 1013.9mb 35f
3:00pm 17 25 mph 1013.9mb 35f
2:50pm 15 29 mph 1013.5mb 35f
2:40pm 17 25 mph 1013.5mb 35f
2:30pm 17 26 mph 1013.5mb 35f
2:20pm 20 28 mph 1013.2mb 35f
2:10pm 18 26 mph 1013.2mb 35f
2:00pm 15 31 mph 1013.2mb 35f
1:50pm 20 26 mph 1013.2mb 35f
1:40pm 20 24 mph 1013.2mb 35f
1:30pm 17 24 mph 1012.9mb 35f
1:20pm 16 26 mph 1012.9mb 35f
1:10pm 18 29 mph 1012.5mb 35f
1:00pm 14 24 mph 1012.9mb 35f
12:50pm 22 28 mph 1012.5mb 35f
12:40pm 17 26 mph 1012.9mb 35f
12:30pm 20 26 mph 1012.5mb 35f
12:20pm 18 25 mph 1012.5mb 35f
12:10pm 17 24 mph 1012.5mb 35f
12:00pm 16 25 mph 1012.5mb 35f
11:50am 14 23 mph 1012.5mb 35f
11:40am 15 22 mph 1012.5mb 35f
11:30am 13 22 mph 1012.9mb 35f
11:20am 15 22 mph 1012.5mb 35f
11:10am 14 24 mph 1012.9mb 35f
11:00am 17 29 mph 1012.9mb 35f
10:50am 18 26 mph 1012.9mb 35f
10:40am 16 25 mph 1012.9mb 35f
10:30am 16 29 mph 1012.9mb 35f
10:20am 21 28 mph 1012.9mb 35f
10:10am 22 28 mph 1012.5mb 36f
10:00am 20 26 mph 1012.9mb 36f
9:50am 17 24 mph 1012.9mb 36f
9:40am 14 22 mph 1013.2mb 35f
9:30am 20 28 mph 1012.9mb 36f
9:20am 17 24 mph 1012.9mb 37f
9:10am 16 29 mph 1012.9mb 37f
9:00am 20 25 mph 1012.5mb 37f
8:50am 18 25 mph 1012.5mb 37f
8:40am 15 23 mph 1012.2mb 37f
8:30am 17 31 mph 1011.9mb 37f
8:20am 21 33 mph 1011.9mb 37f
8:10am 24 38 mph 1011.2mb 38f
6:00am 16 23 mph 1010.2mb 44f
5:50am 15 20 mph 1009.8mb 44f
5:40am 9 16 mph 1009.8mb 44f
5:30am 10 14 mph 1009.8mb 44f
5:20am 9 14 mph 1009.8mb 44f
5:10am 8 13 mph 1009.8mb 44f
5:00am 10 16 mph 1009.5mb 44f
4:50am 13 16 mph 1009.5mb 44f
4:40am 10 17 mph 1009.5mb 44f
4:30am 13 21 mph 1009.1mb 45f
4:20am 10 16 mph 1009.1mb 44f
4:10am 14 18 mph 1009.1mb 44f
4:00am 10 16 mph 1008.8mb 44f
3:50am 10 15 mph 1008.8mb 44f
3:40am 8 16 mph 1008.8mb 44f
3:30am 9 15 mph 1008.8mb 44f
3:20am 9 14 mph 1008.8mb 44f
3:10am 10 17 mph 1008.8mb 44f
3:00am 10 17 mph 1008.8mb 44f
2:50am 9 14 mph 1008.8mb 44f
2:40am 9 15 mph 1008.8mb 44f
2:30am 9 15 mph 1008.8mb 44f
2:20am 11 16 mph 1008.8mb 44f
2:10am 9 15 mph 1008.8mb 44f
2:00am 9 14 mph 1008.8mb 44f
1:50am 6 10 mph 1008.8mb 43f
1:40am 7 11 mph 1008.8mb 43f
1:30am 8 13 mph 1008.8mb 43f
1:20am 7 10 mph 1008.8mb 43f
1:10am 9 11 mph 1008.8mb 43f
1:00am 8 11 mph 1008.8mb 43f
12:50am 7 14 mph 1008.5mb 43f
12:40am 8 13 mph 1008.5mb 43f
12:30am 10 15 mph 1008.5mb 43f
12:20am 9 13 mph 1008.5mb 43f
12:10am 8 13 mph 1008.5mb 43f
12:00am 10 15 mph 1008.5mb 44f
Tue 12/16 11:50pm 7 15 mph 1008.5mb 43f
11:40pm 10 14 mph 1008.5mb 43f
11:30pm 8 14 mph 1008.5mb 44f
11:20pm 10 13 mph 1008.5mb 44f
11:10pm 9 16 mph 1008.5mb 44f
11:00pm 9 15 mph 1008.5mb 44f
10:50pm 8 15 mph 1008.8mb 44f
10:40pm 8 13 mph 1008.5mb 43f
10:30pm 8 13 mph 1008.8mb 44f
10:20pm 9 14 mph 1008.5mb 44f
10:10pm 8 14 mph 1008.5mb 44f
10:00pm 9 14 mph 1008.5mb 44f
9:50pm 10 15 mph 1008.5mb 44f
9:40pm 9 15 mph 1008.1mb 44f
9:30pm 10 15 mph 1008.1mb 44f
9:20pm 11 17 mph 1008.1mb 44f
9:10pm 11 18 mph 1008.1mb 44f
9:00pm 11 17 mph 1008.1mb 44f
8:50pm 9 16 mph 1008.1mb 44f
8:40pm 11 17 mph 1007.8mb 44f
8:30pm 10 18 mph 1008.1mb 45f
8:20pm 9 17 mph 1008.1mb 45f
8:10pm 9 14 mph 1008.1mb 45f
8:00pm 10 17 mph 1007.8mb 45f
7:50pm 10 17 mph 1007.8mb 45f
7:40pm 9 16 mph 1007.8mb 45f
7:30pm 10 17 mph 1007.8mb 45f
7:20pm 10 15 mph 1007.8mb 46f
7:10pm 10 15 mph 1007.8mb 46f
7:00pm 10 15 mph 1007.8mb 45f
6:50pm 9 13 mph 1007.8mb 45f
6:40pm 8 13 mph 1007.8mb 45f
6:30pm 7 11 mph 1008.1mb 44f
6:20pm 6 7 mph 1008.1mb 42f
6:10pm 2 5 mph 1008.1mb 41f
6:00pm 1 2 mph 1008.1mb 40f
5:50pm 1 3 mph 1008.1mb 40f
5:40pm 2 3 mph 1007.8mb 40f
5:30pm 3 5 mph 1007.8mb 40f
5:20pm 5 6 mph 1007.8mb 40f
5:10pm 5 6 mph 1007.8mb 40f
5:00pm 6 7 mph 1007.8mb 40f
4:50pm 6 7 mph 1007.8mb 40f
4:40pm 6 8 mph 1007.8mb 40f
4:30pm 6 7 mph 1007.8mb 40f
4:20pm 7 8 mph 1007.8mb 40f
4:10pm 6 7 mph 1007.8mb 40f
4:00pm 6 7 mph 1007.8mb 40f
3:50pm 7 8 mph 1007.8mb 40f
3:40pm 8 9 mph 1007.8mb 40f
3:30pm 8 9 mph 1007.5mb 40f
3:20pm 7 8 mph 1007.5mb 40f
3:10pm 7 8 mph 1007.5mb 39f
3:00pm 8 10 mph 1007.8mb 38f
2:50pm 9 13 mph 1007.5mb 38f
2:40pm 11 13 mph 1007.5mb 38f
2:30pm 10 11 mph 1007.5mb 38f
2:20pm 11 14 mph 1007.5mb 38f
2:10pm 13
mph
1007.5mb 38f
2:00pm 11 14 mph 1007.5mb 38f
1:50pm 13 14 mph 1007.5mb 38f
1:40pm 11 13 mph 1007.1mb 38f
1:30pm 10
mph
1007.5mb 39f
1:20pm 8 9 mph 1007.5mb 39f
1:10pm 7 8 mph 1007.5mb 40f
1:00pm 6 8 mph 1007.8mb 40f
12:50pm 7 9 mph 1007.8mb 40f
12:40pm 7 13 mph 1007.8mb 39f
12:30pm 10 13 mph 1007.5mb 39f
12:20pm 10 13 mph 1007.8mb 38f
12:10pm 13
mph
1007.8mb 38f
12:00pm 11 14 mph 1008.1mb 37f
11:50am 13 14 mph 1008.1mb 37f
11:40am 13 14 mph 1008.5mb 37f
11:30am 11 13 mph 1008.5mb 37f
11:20am 10 11 mph 1008.5mb 37f
11:10am 10
mph
1008.8mb 37f
11:00am 7 9 mph 1009.1mb 37f
10:50am 9 10 mph 1009.1mb 37f
10:40am 10
mph
1009.1mb 37f
10:30am 8 9 mph 1009.8mb 37f
10:20am 7 8 mph 1010.2mb 37f
10:10am 6 8 mph 1010.5mb 37f
10:00am 5 8 mph 1010.8mb 37f
9:50am 8 9 mph 1010.8mb 37f
9:40am 7 8 mph 1010.8mb 37f
9:30am 6 9 mph 1010.5mb 37f
9:20am 8 9 mph 1010.5mb 37f
9:10am 10 13 mph 1010.5mb 37f
9:00am 8 9 mph 1010.5mb 37f
8:50am 6 7 mph 1010.8mb 37f
8:40am 6 8 mph 1010.8mb 37f
8:30am 6 9 mph 1010.8mb 36f
8:20am 9 10 mph 1010.8mb 36f
8:10am 8 11 mph 1011.2mb 36f
8:00am 11 13 mph 1010.8mb 36f
7:50am 10 13 mph 1010.8mb 36f
7:40am 9 11 mph 1011.2mb 35f
7:30am 7 8 mph 1011.9mb 35f
7:20am 5 8 mph 1012.2mb 35f
7:10am 3 8 mph 1012.2mb 35f
7:00am 7 15 mph 1011.9mb 35f
6:50am 16 18 mph 1010.8mb 35f
6:40am 10 15 mph 1011.2mb 35f
6:30am 8 13 mph 1011.9mb 35f
6:20am 8 10 mph 1012.2mb 35f
6:10am 9 16 mph 1012.2mb 35f
6:00am 13 17 mph 1012.2mb 36f
5:50am 16 18 mph 1012.2mb 36f
5:40am 15 16 mph 1011.9mb 36f
5:30am 7 8 mph 1012.9mb 35f
5:20am 6 7 mph 1013.2mb 35f
5:10am 6 10 mph 1013.5mb 35f
5:00am 8 10 mph 1013.2mb 35f
4:50am 7 8 mph 1013.2mb 35f
4:40am 6 8 mph 1013.2mb 35f
4:30am 7 9 mph 1013.2mb 35f
4:20am 7 9 mph 1013.5mb 35f
4:10am 6 8 mph 1013.5mb 35f
4:00am 6 10 mph 1013.5mb 35f
3:50am 8 11 mph 1013.2mb 35f
3:40am 9 13 mph 1013.5mb 35f
3:30am 7 13 mph 1013.5mb 35f
3:20am 8 11 mph 1013.9mb 35f
3:10am 6 10 mph 1013.9mb 35f
3:00am 9 11 mph 1013.9mb 35f
2:50am 8 13 mph 1014.2mb 35f
2:40am 5 10 mph 1014.6mb 35f
2:30am 7 10 mph 1014.2mb 35f
2:20am 7 17 mph 1014.6mb 35f
2:10am 7 14 mph 1014.6mb 35f
2:00am 13 15 mph 1014.6mb 35f
1:50am 8 14 mph 1014.9mb 35f
1:40am 10 13 mph 1014.9mb 35f
1:30am 9 11 mph 1014.9mb 35f
1:20am 10 14 mph 1015.2mb 35f
1:10am 9 13 mph 1015.2mb 36f
1:00am 7 14 mph 1015.2mb 35f
12:50am 10 14 mph 1014.9mb 35f
12:40am 10 15 mph 1014.9mb 35f
12:30am 13 18 mph 1014.9mb 36f
12:20am 8 11 mph 1014.9mb 36f
12:10am 6 8 mph 1015.6mb 36f
12:00am 6 9 mph 1015.6mb 37f
Mon 12/15 11:50pm 8 9 mph 1015.6mb 37f
11:40pm 6 7 mph 1015.9mb 37f
11:30pm 6
mph
1015.9mb 37f
11:20pm 5 6 mph 1015.9mb 37f
11:10pm 5
mph
1015.9mb 37f
11:00pm 3 6 mph 1015.9mb 37f
10:50pm 5 6 mph 1015.9mb 37f
10:40pm 3 5 mph 1015.9mb 37f
10:30pm 3 6 mph 1015.9mb 37f
10:20pm 5 7 mph 1015.9mb 37f
10:10pm 5 7 mph 1016.3mb 37f
10:00pm 5 7 mph 1016.3mb 37f
9:50pm 5 8 mph 1016.3mb 37f
9:40pm 6 8 mph 1016.3mb 37f
9:30pm 5 8 mph 1016.3mb 37f
9:20pm 6 9 mph 1016.3mb 37f
9:10pm 7 10 mph 1016.3mb 37f
9:00pm 7 10 mph 1016.3mb 37f
8:50pm 8 10 mph 1016.3mb 37f
8:40pm 7 10 mph 1016.6mb 37f